sat.trackr.live / text

‹ back to catalog

STARLINK-6304

NORAD 56778 · 2023-078M

PAYLOAD ACTIVE UNKNOWN

§ Identity

Operator
Country
US
Launch date
2023-05-31
Launch site
AFWTR
Launch vehicle
Mass (kg)
RCS (m²)

Purposes: comms

External: N2YO · Heavens-Above · Gunter

§ Orbital elements

Epoch: 2026-05-25T03:45:27.494208Z

Period
96.11 min
Inclination
69.9987°
Eccentricity
0.0003565
Mean motion
14.98331176 rev/d
Perigee alt
569.6 km
Apogee alt
574.5 km
Semi-major
6,950.2 km
B*
6.5454e-6
RAAN
131.8132°
Arg perigee
267.6619°
Mean anomaly
92.4132°
Rev number
16,462

§ Raw data

STARLINK-63041 56778U 23078M   26145.15656822 -.00000015  00000+0  65454-5 0  99912 56778  69.9987 131.8132 0003565 267.6619  92.4132 14.98331176164621

JSON: /api/v1/satellites/56778 · /tle

For live sub-satellite position, see the globe view (requires WebGL).

§ Visibility from observer

Set your observer location to see the next 7 days of passes ≥ 10°. The values pass through the URL so the page stays shareable.

No JS? Fill the form by hand. The geolocation button needs JavaScript.